TimeEDT,TemperatureF,Dew PointF,Humidity,Sea Level PressureIn,VisibilityMPH,Wind Direction,Wind SpeedMPH,Gust SpeedMPH,PrecipitationIn,Events,Conditions,WindDirDegrees,DateUTC
12:53 AM,75.0,50.0,41,29.57,10.0,South,8.1,-,N/A,,Overcast,170,2013-04-12 04:53:00
1:53 AM,73.9,51.1,45,29.55,10.0,South,9.2,21.9,N/A,,Mostly Cloudy,170,2013-04-12 05:53:00
2:53 AM,73.0,54.0,51,29.54,10.0,South,11.5,18.4,0.00,Rain,Light Rain,170,2013-04-12 06:53:00
3:49 AM,64.4,60.8,88,29.58,5.0,WSW,5.8,-,0.07,Rain,Light Rain,250,2013-04-12 07:49:00
3:53 AM,64.9,60.1,84,29.55,6.0,Variable,5.8,-,0.07,Rain,Light Rain,0,2013-04-12 07:53:00
4:05 AM,62.6,60.8,94,29.60,2.5,SSW,5.8,-,0.07,Rain,Heavy Rain,200,2013-04-12 08:05:00
4:19 AM,62.6,60.8,94,29.59,3.0,South,5.8,-,0.12,Rain,Rain,190,2013-04-12 08:19:00
4:53 AM,62.1,60.1,93,29.57,7.0,South,6.9,-,0.13,Rain,Light Rain,170,2013-04-12 08:53:00
5:53 AM,62.1,57.9,86,29.57,7.0,South,8.1,-,0.11,Rain,Light Rain,180,2013-04-12 09:53:00
6:53 AM,62.1,55.9,80,29.53,10.0,SSE,11.5,18.4,0.03,Rain,Light Rain,160,2013-04-12 10:53:00
7:53 AM,62.1,57.0,84,29.54,10.0,SSW,8.1,16.1,0.00,,Overcast,200,2013-04-12 11:53:00
8:53 AM,64.0,55.9,75,29.56,10.0,SSW,9.2,16.1,N/A,,Overcast,200,2013-04-12 12:53:00
9:53 AM,64.9,55.9,73,29.58,10.0,SW,11.5,23.0,N/A,,Overcast,220,2013-04-12 13:53:00
10:53 AM,64.9,57.0,75,29.60,10.0,SW,9.2,-,0.00,,Overcast,230,2013-04-12 14:53:00
11:25 AM,64.4,53.6,68,29.64,10.0,WSW,9.2,18.4,N/A,,Overcast,250,2013-04-12 15:25:00
11:41 AM,62.6,51.8,68,29.66,10.0,SW,16.1,25.3,N/A,,Overcast,230,2013-04-12 15:41:00
11:53 AM,63.0,53.1,70,29.64,10.0,SSW,10.4,-,N/A,,Overcast,210,2013-04-12 15:53:00
12:53 PM,59.0,52.0,78,29.66,10.0,WSW,8.1,21.9,0.00,Rain,Light Rain,240,2013-04-12 16:53:00
1:53 PM,63.0,48.9,60,29.65,10.0,West,6.9,-,N/A,,Mostly Cloudy,260,2013-04-12 17:53:00
2:11 PM,64.4,50.0,59,29.67,10.0,SW,8.1,-,N/A,,Mostly Cloudy,220,2013-04-12 18:11:00
2:53 PM,66.0,44.1,45,29.64,10.0,SW,12.7,23.0,N/A,,Partly Cloudy,230,2013-04-12 18:53:00
3:53 PM,66.9,41.0,39,29.64,10.0,SW,11.5,18.4,N/A,,Partly Cloudy,230,2013-04-12 19:53:00
4:53 PM,66.0,37.0,34,29.65,10.0,WSW,10.4,24.2,N/A,,Scattered Clouds,250,2013-04-12 20:53:00
5:53 PM,64.9,34.0,32,29.68,10.0,West,9.2,23.0,N/A,,Partly Cloudy,260,2013-04-12 21:53:00
6:53 PM,61.0,37.0,41,29.72,10.0,WNW,15.0,23.0,N/A,,Clear,290,2013-04-12 22:53:00
7:53 PM,55.9,35.1,45,29.78,10.0,WNW,9.2,19.6,N/A,,Partly Cloudy,300,2013-04-12 23:53:00
8:53 PM,53.1,33.1,47,29.83,10.0,WNW,3.5,-,N/A,,Mostly Cloudy,290,2013-04-13 00:53:00
9:53 PM,50.0,35.1,57,29.86,10.0,Calm,Calm,-,N/A,,Overcast,0,2013-04-13 01:53:00
10:53 PM,51.1,35.1,54,29.86,10.0,Variable,3.5,-,N/A,,Overcast,0,2013-04-13 02:53:00
11:53 PM,51.1,33.1,50,29.86,10.0,WNW,4.6,-,N/A,,Overcast,290,2013-04-13 03:53:00